Погода в Курилове

Россия / Костромская область     58°07′24″N   43°02′48″E
темп.,
°C
ветер,
м/с
пор.,
м/с
влажн.,
%
обл.,
%
осадки,
мм/ч
давл.,
гПа
погр.,
м
23 мая, пн
пн2300:00−2сз39945 0.0 1004292
03:00−2сз3996100 0.0 1003355
06:000сз4678100 0.0 1002617
09:00+2сз4683100 0.4 1000852
12:00+3сз5777100 0.6 10001098
15:00+2сз4891100 1.3 1001837
18:00+1сз3897100 1.2 1000688
21:000зсз2599100 1.9 1000255
24 мая, вт
вт2400:00−1ссз159997 2.7 1000261
03:00−2сз139991 2.9 1001140
06:000ссз259478 0.1 1001339
09:00+2с3484100 0.4 1002948
12:00+4с3474100 0.4 10041276
15:00+6с3366100 0.8 10061248
18:00+5ссз368892 0.4 1007580
21:00+1ссз399811 0.4 1009270
25 мая, ср
ср2500:00−1ссз399813 0.0 1010217
03:00−1ссз399767 0.0 1011204
06:00+2ссз389049 0.0 1011296
09:00+6ссз467795 0.1 10111150
12:00+7ссз467986 0.6 10121151
15:00+8ссз467098 1.0 10121313
18:00+7сз488797 0.3 1012676
21:00+4зсз2798100 0.4 1012180
26 мая, чт
чт2600:00+4зсз2897100 0.0 1012226
03:00+3зсз249799 0.0 101293
06:00+5з259488 0.0 1011204
09:00+5юз2594100 0.3 1010775
12:00+8зюз2479100 0.1 1008825
15:00+12зюз256295 0.6 10061484
18:00+12в116142 0.1 1003400
21:00+7вюв3685100 0.1 1001103
27 мая, пт
пт2700:00+6вюв2591100 0.0 999102
03:00+6юв2299100 0.0 99734
06:00+8вюв1293100 0.0 996132
09:00+10юв1184100 0.0 996236
12:00+15ююз2259100 0.0 9961119
15:00+11зюз3789100 0.6 998302
18:00+12зюз3685100 0.4 999524
21:00+9юз279774 0.8 1000153